Garrison, ND

9:53 PM CDT on May 22, 2017 (GMT -0500)
Garrison

Weather History for KN60 - January, 2013

Change the Weather History Date:

Wednesday, January 2, 2013

  Actual Average Record
Temperature  
Mean Temperature 22 °F -  
Max Temperature 28 °F 17 °F 38 °F (2015)
Min Temperature 15 °F 2 °F 1 °F (2017)
Degree Days  
Heating Degree Days 44    
Moisture  
Dew Point 20 °F    
Average Humidity 85    
Maximum Humidity 89    
Minimum Humidity 81    
Precipitation  
Precipitation 0.01 in - - ()
Sea Level Pressure  
Sea Level Pressure 30.13 in    
Wind  
Wind Speed 18 mph (NW)    
Max Wind Speed 24 mph    
Max Gust Speed 30 mph    
Averages and records for this station are not official NWS values.
T = Trace of Precipitation, MM = Missing Value Source: NWS Daily Summary

Daily Weather History Graph

Daily Weather History Graph

Search for Another Location

Airport or City:

Trip Planner

Search our weather history database for the weather conditions in past years. The results will help you decide how hot, cold, wet, or windy it might be!

Date:

Astronomy

Jan. 02, 2013 Rise Set
Actual Time 8:34 AM CST 5:06 PM CST
Civil Twilight 7:58 AM CST 5:41 PM CST
Nautical Twilight 7:19 AM CST 6:20 PM CST
Astronomical Twilight 6:41 AM CST 6:58 PM CST
Moon 11:06 PM CST (1/2) 10:53 AM CST (1/2)
Length of Visible Light 9h 43m
Length of Day
8h 31m
Waning Gibbous, 75% of the Moon is Illuminated
Jan 2
Waning Gibbous
Jan 4
Last Quarter
Jan 11
New
Jan 18
First Quarter
Jan 26
Full

Hourly Weather History & Observations

Time (CST) Temp. Windchill Dew Point Humidity Pressure Visibility Wind Dir Wind Speed Gust Speed Precip Events Conditions
12:52 AM 28.0 °F 14.6 °F 24.1 °F 85% 29.97 in - WNW 20.7 mph - N/A   Unknown
1:52 AM 28.9 °F 15.1 °F 24.1 °F 82% 29.97 in - NW 23.0 mph 29.9 mph N/A   Unknown
2:52 AM 28.9 °F 17.7 °F 25.0 °F 85% 29.98 in - WNW 15.0 mph - 0.01 in   Unknown
3:52 AM 28.9 °F 16.9 °F 26.1 °F 89% 29.97 in - WNW 17.3 mph - N/A   Unknown
4:52 AM 28.9 °F 16.9 °F 25.0 °F 85% 29.98 in - WNW 17.3 mph 25.3 mph N/A   Unknown
5:52 AM 27.0 °F 12.2 °F 23.0 °F 85% 29.99 in - NW 24.2 mph - N/A   Unknown
6:52 AM 28.0 °F 17.5 °F 25.0 °F 88% 30.00 in - WNW 12.7 mph - N/A   Unknown
7:52 AM 27.0 °F 16.7 °F 24.1 °F 89% 30.00 in - WNW 11.5 mph - N/A   Unknown
8:52 AM 27.0 °F 14.3 °F 24.1 °F 89% 30.01 in - WNW 17.3 mph - N/A   Unknown
9:52 AM 25.0 °F 11.7 °F 21.9 °F 88% 30.02 in - WNW 17.3 mph - N/A   Unknown
10:52 AM 25.0 °F 11.7 °F 21.0 °F 85% 30.05 in - WNW 17.3 mph - N/A   Unknown
11:52 AM 26.1 °F 12.3 °F 21.9 °F 84% 30.07 in - NW 19.6 mph - N/A   Unknown
12:52 PM 28.0 °F 14.9 °F 24.1 °F 85% 30.08 in - NNW 19.6 mph - N/A   Unknown
1:52 PM 26.1 °F 15.6 °F 23.0 °F 88% 30.11 in - North 11.5 mph 24.2 mph N/A   Unknown
2:52 PM 21.9 °F 9.8 °F 18.0 °F 85% 30.15 in - NNE 12.7 mph 19.6 mph N/A   Unknown
3:52 PM 19.9 °F 7.9 °F 17.1 °F 89% 30.18 in - North 11.5 mph 20.7 mph N/A   Unknown
4:52 PM 19.9 °F 4.3 °F 16.0 °F 85% 30.22 in - North 19.6 mph 28.8 mph N/A   Unknown
5:52 PM 19.0 °F 2.4 °F 15.1 °F 85% 30.26 in - North 21.9 mph - N/A   Unknown
6:52 PM 19.0 °F 2.4 °F 14.0 °F 81% 30.28 in - NNW 21.9 mph - N/A   Unknown
7:52 PM 18.0 °F 0.2 °F 12.9 °F 81% 30.31 in - NNW 24.2 mph 27.6 mph N/A   Unknown
8:52 PM 15.1 °F 2.5 °F 10.9 °F 84% 30.34 in - NNW 10.4 mph - N/A   Unknown
9:52 PM 17.1 °F 7.6 °F 12.0 °F 81% 30.34 in - WNW 6.9 mph - N/A   Unknown
10:52 PM 17.1 °F 1.5 °F 12.0 °F 81% 30.37 in - NNW 17.3 mph - N/A   Unknown
11:52 PM 17.1 °F 5.8 °F 12.0 °F 81% 30.36 in - NW 9.2 mph - N/A   Unknown